EDT,Max TemperatureF,Mean TemperatureF,Min TemperatureF,Max Dew PointF,MeanDew PointF,Min DewpointF,Max Humidity, Mean Humidity, Min Humidity, Max Sea Level PressureIn, Mean Sea Level PressureIn, Min Sea Level PressureIn, Max VisibilityMiles, Mean VisibilityMiles, Min VisibilityMiles, Max Wind SpeedMPH, Mean Wind SpeedMPH, Max Gust SpeedMPH,PrecipitationIn, CloudCover, Events, WindDirDegrees
2013-7-1,72,65,58,56,50,44,72,60,47,30.11,30.04,29.99,10,10,10,21,9,25,0.01,5,Rain,30
2013-7-2,78,69,60,59,55,49,84,69,54,30.09,30.07,30.04,10,10,10,15,8,32,0.00,7,,55
2013-7-3,84,72,60,67,62,55,90,71,51,30.11,30.08,30.05,10,9,7,12,6,20,0.00,3,,153
2013-7-4,81,73,64,65,62,56,87,66,45,30.14,30.10,30.07,10,8,2,14,6,23,0.00,1,,217
2013-7-5,86,76,66,66,62,59,87,65,43,30.12,30.09,30.05,10,8,4,9,2,28,0.00,3,,218
2013-7-6,87,78,69,69,66,65,87,69,51,30.12,30.06,29.99,10,9,7,17,5,,0.00,3,,195
2013-7-7,84,78,71,70,68,65,90,74,58,30.05,30.01,29.96,10,6,2,13,5,26,0.25,6,Rain,235
2013-7-8,84,78,71,73,69,65,87,81,74,30.02,29.99,29.97,10,9,7,20,6,23,T,5,Rain-Thunderstorm,232
2013-7-9,89,80,71,72,69,66,93,74,55,30.00,29.95,29.87,10,8,0,63,4,29,0.05,5,Rain-Thunderstorm,245
2013-7-10,89,77,65,73,67,53,94,69,43,29.95,29.82,29.77,10,8,5,23,11,30,0.00,3,,273
2013-7-11,79,68,56,56,54,51,87,65,42,30.09,30.04,29.97,10,10,10,15,7,17,0.00,1,,350
2013-7-12,83,69,55,61,57,52,93,68,42,30.19,30.14,30.10,10,10,7,10,4,16,0.00,1,,61
2013-7-13,85,72,58,63,57,52,93,63,32,30.22,30.19,30.16,10,10,10,13,5,17,0.00,0,,111
2013-7-14,90,77,63,68,65,60,93,70,47,30.27,30.24,30.22,10,10,6,9,4,24,0.00,2,,118
2013-7-15,93,82,70,75,71,67,90,71,52,30.30,30.27,30.24,10,10,4,13,3,17,T,3,Thunderstorm,124
2013-7-16,94,84,74,74,72,70,94,72,49,30.32,30.27,30.23,10,10,8,14,4,26,0.00,3,,262
2013-7-17,95,84,72,75,72,69,87,68,49,30.27,30.22,30.14,10,10,6,14,7,20,0.02,1,Thunderstorm,249
2013-7-18,95,83,71,74,72,69,87,67,46,30.16,30.06,29.94,10,10,9,20,7,26,0.00,1,,227
2013-7-19,96,87,78,73,69,61,79,60,41,29.94,29.80,29.70,10,10,9,29,12,38,T,1,Thunderstorm,239
2013-7-20,88,77,66,68,62,55,79,57,34,29.95,29.82,29.71,10,10,10,21,7,22,0.00,4,Thunderstorm,347
2013-7-21,84,73,62,59,55,51,70,55,40,30.02,29.98,29.94,10,10,10,12,5,15,0.00,0,,60
2013-7-22,84,76,67,67,62,57,81,64,47,29.97,29.86,29.76,10,10,10,10,6,12,T,3,Rain,167
2013-7-23,82,72,62,71,63,48,84,67,50,29.90,29.74,29.67,10,10,10,24,11,37,0.39,5,Rain-Thunderstorm,285
2013-7-24,74,64,53,50,48,45,77,59,41,30.07,30.01,29.92,10,10,10,20,8,31,0.00,4,,20
2013-7-25,78,63,47,56,50,46,93,64,35,30.13,30.10,30.07,10,10,10,13,2,,0.00,0,,210
2013-7-26,81,71,60,62,56,53,87,65,42,30.09,30.02,29.92,10,10,10,15,7,20,0.08,2,Rain,187
2013-7-27,78,67,55,64,61,46,87,74,60,29.90,29.83,29.74,10,10,10,28,7,35,0.06,7,Rain-Thunderstorm,209
2013-7-28,69,60,51,55,51,46,83,69,55,29.98,29.88,29.83,10,10,10,24,8,30,0.27,6,Rain,223
2013-7-29,72,65,57,56,54,52,86,72,57,30.19,30.06,29.97,10,10,10,15,8,20,0.02,7,Rain,256
2013-7-30,79,64,48,58,54,47,93,68,42,30.24,30.19,30.13,10,10,10,9,2,22,0.00,1,Fog,202
2013-7-31,69,66,63,65,63,59,93,86,78,30.13,30.00,29.90,10,7,1,10,4,,0.59,8,Rain,95